This demonstration page uses our WeatherBlox Daily Observations layout. Learn more.

39.01783, -85.05884

Hourly Observations for November 20, 2019

Temp ( °F °C ) Dew Point ( °F °C ) Humidity (%) Winds ( mph kmh ) Pressure ( in mb ) Visibility ( mi km ) Precip ( " mm )
12:49 am 00:49 Cloudy with Patchy Fog 43 6 39 4 87 87 W 5 7 29.99 1016 0.25 0.402335 0 0
12:52 am 00:52 Cloudy with Patchy Fog 42 5.6 41 5 96 96 W 6 9 29.97 1015 0.25 0.402335 0 0
1:10 am 01:10 Cloudy with Patchy Fog 43 6.1 41 5 93 93 W 5 7 30 1016 1.5 2.41401 0 0
1:33 am 01:33 Cloudy with Mist and Fog 43 6.1 41 5 93 93 W 7 11 30.01 1016 3 4.82802 0 0
1:52 am 01:52 Cloudy with Mist and Fog 43 6.1 40 4.4 89 89 NW 8 13 29.99 1016 3 4.82802 0 0
2:15 am 02:15 Cloudy with Mist and Fog 43 6.1 40 4.4 89 89 WNW 6 9 30.04 1017 3 4.82802 0 0
2:52 am 02:52 Cloudy with Mist and Fog 43 6.1 40 4.4 89 89 NNW 3 6 30.04 1017 0.5 0.80467 0 0
3:52 am 03:52 Cloudy with Mist and Fog 43 6.1 40 4.4 89 89 NW 5 7 30.06 1018 0.5 0.80467 0 0
4:27 am 04:27 Cloudy with Mist and Fog 43 6.1 41 5 93 93 Calm 30.1 1019 1.5 2.41401 0 0
4:52 am 04:52 Cloudy with Mist and Fog 43 6.1 40 4.4 89 89 W 3 6 30.09 1019 1.5 2.41401 0 0
5:52 am 05:52 Cloudy with Mist and Fog 43 6.1 41 5 93 93 WNW 7 11 30.12 1020 1 1.60934 0 0
6:12 am 06:12 Cloudy with Mist and Fog 43 6.1 40 4.4 89 89 WNW 8 13 30.15 1021 1 1.60934 0 0
6:30 am 06:30 Cloudy with Mist and Fog 43 6.1 40 4.4 89 89 WNW 3 6 30.15 1021 2.5 4.02335 0 0
6:37 am 06:37 Cloudy with Mist and Fog 43 6.1 40 4.4 89 89 WNW 5 7 30.15 1021 2.5 4.02335 0 0
6:43 am 06:43 Cloudy with Mist and Fog 43 6.1 40 4.4 89 89 WNW 5 7 30.15 1021 2.5 4.02335 0 0
6:52 am 06:52 Cloudy with Mist and Fog 43 6.1 40 4.4 89 89 WNW 3 6 30.14 1021 5 8.0467 0 0
7:15 am 07:15 Cloudy with Mist and Fog 43 6.1 41 5 93 93 NW 3 6 30.17 1022 4 6.43736 0 0
7:52 am 07:52 Cloudy with Light Drizzle 43 6.1 41 5 93 93 Calm 30.17 1022 2 3.21868 0.001 0.001
7:54 am 07:54 Cloudy with Light Drizzle 43 6.1 41 5 93 93 Calm 30.19 1022 2 3.21868 0.001 0.001
8:08 am 08:08 Cloudy with Mist and Fog 43 6.1 41 5 93 93 S 7 11 30.19 1022 3 4.82802 0.001 0.001
8:59 am 08:59 Cloudy with Mist and Fog 44 6.7 41 5 89 89 SW 6 9 30.21 1023 2.5 4.02335 0 0
9:16 am 09:16 Cloudy with Mist and Fog 44 6.7 41 5 89 89 W 7 11 30.21 1023 3 4.82802 0 0
9:52 am 09:52 Cloudy with Mist and Fog 44 6.7 42 5.6 93 93 VRB 5 7 30.2 1023 3 4.82802 0 0
10:27 am 10:27 Cloudy with Mist and Fog 45 7.2 42 5.6 90 90 W 6 9 30.24 1024 1.5 2.41401 0 0
10:52 am 10:52 Cloudy with Mist and Fog 45 7.2 41 5 86 86 WSW 6 9 30.23 1024 1.5 2.41401 0 0
10:54 am 10:54 Cloudy with Mist and Fog 45 7.2 41 5 86 86 SW 5 7 30.25 1024 3 4.82802 0 0
11:52 am 11:52 Cloudy with Mist and Fog 46 7.8 42 5.6 86 86 SSW 6 9 30.23 1024 3 4.82802 0 0
12:27 pm 12:27 Cloudy with Mist and Fog 47 8.3 42 5.6 83 83 S 5 7 30.23 1024 5 8.0467 0 0
12:52 pm 12:52 Cloudy 48 8.9 42 5.6 80 80 WSW 7 11 30.22 1023 7 11.26538 0 0
1:20 pm 13:20 Cloudy 48 8.9 41 5 77 77 SW 7 11 30.23 1024 9 14.48406 0 0
1:52 pm 13:52 Cloudy 48 8.9 41 5 77 77 SW 6 9 30.22 1023 10 16.0934 0 0
2:52 pm 14:52 Mostly Cloudy 49 9.4 40 4.4 71 71 SE 3 6 30.2 1023 10 16.0934 0 0
3:52 pm 15:52 Cloudy 49 9.4 39 3.9 69 69 S 6 9 30.22 1023 10 16.0934 0 0
4:19 pm 16:19 Cloudy 48 8.9 39 3.9 71 71 S 8 13 30.23 1024 10 16.0934 0 0
4:52 pm 16:52 Cloudy 48 8.9 40 4.4 74 74 S 5 7 30.22 1023 10 16.0934 0 0
5:52 pm 17:52 Cloudy 46 7.8 40 4.4 79 79 S 6 9 30.23 1024 10 16.0934 0 0
6:29 pm 18:29 Cloudy 46 7.8 39 3.9 77 77 S 9 15 30.26 1025 10 16.0934 0 0
6:52 pm 18:52 Cloudy 46 7.8 39 3.9 77 77 S 9 15 30.24 1024 10 16.0934 0 0
7:52 pm 19:52 Cloudy 43 6.1 38 3.3 82 82 S 8 13 30.24 1024 10 16.0934 0 0
8:25 pm 20:25 Cloudy 41 5 36 2.2 82 82 SSE 6 9 30.28 1025 10 16.0934 0 0
8:52 pm 20:52 Cloudy 42 5.6 37 2.8 82 82 S 6 9 30.25 1024 10 16.0934 0 0
9:35 pm 21:35 Cloudy 41 5 36 2.2 82 82 S 6 9 30.28 1025 10 16.0934 0 0
9:52 pm 21:52 Cloudy 41 5 36 2.2 82 82 SSW 5 7 30.26 1025 9 14.48406 0 0
10:52 pm 22:52 Cloudy 40 4.4 36 2.2 86 86 S 5 7 30.25 1024 9 14.48406 0 0
11:52 pm 23:52 Cloudy 40 4.4 36 2.2 86 86 SE 7 11 30.23 1024 8 12.87472 0 0

Powered by AerisWeather